Location: Kernascl�den
(48.0062°N, 3.3198°W)
Time: 12:30:32
(UTC+00:00)

USA 229 DEB - Pass Details

Date: 21 January 2021
Orbit: 965 x 1247 km, 63.4° (Epoch: 03 March)

Event Time Altitude Azimuth Distance (km) Brightness Sun altitude
Rises 18:53:39 0° 318° (NW) 3,913 7.1 -19.3°
Reaches altitude 10° 18:56:20 10° 323° (NW) 2,994 6.4 -19.7°
Maximum altitude 19:03:24 56° 41° (NE) 1,374 4.0 -20.9°
Enters shadow 19:06:38 34° 102° (ESE) 1,860 4.4 -21.4°
